Location: Eurasberg
(48.3353°N, 11.0839°E)
Time: 08:32:32
(UTC+00:00)

BREEZE-M DEB (TANK) - Pass Details

Date: 18 January 2026
Orbit: 313 x 16555 km, 49.5° (Epoch: 16 February)

Event Time Altitude Azimuth Distance (km) Brightness Sun altitude
Exits shadow 05:05:54 30° 249° (WSW) 1,282 4.2 -18.5°
Maximum altitude 05:07:32 42° 202° (SSW) 1,299 4.6 -18.2°
Drops below altitude 10° 05:18:04 10° 137° (SE) 5,497 8.7 -16.5°
Sets 05:26:33 0° 133° (SE) 8,756 10.0 -15.1°
